This is the latest recevied weather packets stored in our database for station/object F4IDZ-11. If no packets are shown the sender has not sent any weather packets the latest 10 day(s).
| Time | Temp. | Humidity | Pressure | Rain* | Wind** | Luminosity | Snow |
|---|---|---|---|---|---|---|---|
| 1777494154 | 20.56° C | 44% | 995.3 hPa | - | - | - | - |
| 1777493253 | 21.11° C | 44% | 995.1 hPa | - | - | - | - |
| 1777492353 | 21.67° C | 44% | 994.9 hPa | - | - | - | - |
| 1777491453 | 22.22° C | 43% | 994.7 hPa | - | - | - | - |
| 1777490553 | 22.78° C | 43% | 994.5 hPa | - | - | - | - |
| 1777489653 | 23.33° C | 42% | 994.5 hPa | - | - | - | - |
| 1777488752 | 23.89° C | 42% | 994.3 hPa | - | - | - | - |
| 1777487852 | 24.44° C | 42% | 994 hPa | - | - | - | - |
| 1777486952 | 25° C | 42% | 993.9 hPa | - | - | - | - |
| 1777486052 | 25.56° C | 41% | 993.7 hPa | - | - | - | - |
| 1777485152 | 26.11° C | 41% | 993.7 hPa | - | - | - | - |
| 1777484252 | 26.67° C | 41% | 993.6 hPa | - | - | - | - |
| 1777483351 | 27.22° C | 40% | 993.7 hPa | - | - | - | - |
| 1777482451 | 27.78° C | 41% | 993.7 hPa | - | - | - | - |
| 1777481551 | 27.78° C | 41% | 993.7 hPa | - | - | - | - |
| 1777480651 | 28.33° C | 40% | 993.7 hPa | - | - | - | - |
| 1777479751 | 28.33° C | 40% | 993.7 hPa | - | - | - | - |
| 1777478851 | 28.33° C | 40% | 993.7 hPa | - | - | - | - |
| 1777477950 | 28.33° C | 40% | 993.6 hPa | - | - | - | - |
| 1777477050 | 28.33° C | 40% | 993.7 hPa | - | - | - | - |
| 1777476150 | 28.33° C | 41% | 993.8 hPa | - | - | - | - |
| 1777475250 | 28.33° C | 40% | 994 hPa | - | - | - | - |
| 1777474350 | 28.33° C | 40% | 994.3 hPa | - | - | - | - |
| 1777473450 | 28.33° C | 41% | 994.4 hPa | - | - | - | - |
| 1777472549 | 27.78° C | 41% | 994.3 hPa | - | - | - | - |
* Rain since midnight (hover to see other rain measurements)
** Current wind speed in m/s (hover to see current wind gust speed)